Weather History for Beaufort MCAS, SC

Change the Weather History Date:

Sunday, November 25, 2012

  Actual Average Record
Temperature  
Mean Temperature 48 °F -  
Max Temperature 62 °F 67 °F 80 °F (1931)
Min Temperature 35 °F 46 °F 17 °F (1950)
Degree Days  
Heating Degree Days 16    
Moisture  
Dew Point 36 °F    
Average Humidity 72    
Maximum Humidity 93    
Minimum Humidity 32    
Precipitation  
Precipitation 0.00 in - - ()
Sea Level Pressure  
Sea Level Pressure 30.15 in    
Wind  
Wind Speed 4 mph (SSW)    
Max Wind Speed 10 mph    
Max Gust Speed -    
Visibility 8 miles    
Events      
Averages and records for this station are not official NWS values.
T = Trace of Precipitation, MM = Missing Value Source: NWS Daily Summary

Daily Weather History Graph

Daily Weather History Graph

Search for Another Location

Airport:

Trip Planner

Search our weather history database for the weather conditions in past years. The results will help you decide how hot, cold, wet, or windy it might be!

Date:

Astronomy

Nov. 25, 2012 Rise Set
Actual Time 7:01 AM EST 5:18 PM EST
Civil Twilight 6:35 AM EST 5:44 PM EST
Nautical Twilight 6:05 AM EST 6:14 PM EST
Astronomical Twilight 5:35 AM EST 6:44 PM EST
Moon 3:28 PM EST (11/25) 4:20 AM EST (11/25)
Length of Visible Light 11h 09m
Length of Day
10h 16m
Waxing Gibbous, 93% of the Moon is Illuminated
Nov 25
Waxing Gibbous
Nov 28
Full
Dec 6
Last Quarter
Dec 13
New
Dec 20
First Quarter

Hourly Weather History & Observations

Time (EST) Temp. Windchill Dew Point Humidity Pressure Visibility Wind Dir Wind Speed Gust Speed Precip Events Conditions
12:56 AM 37.9 °F - 30.9 °F 76% 30.11 in 10.0 mi Calm Calm - N/A   Clear
1:56 AM 39.0 °F 35.7 °F 32.0 °F 76% 30.11 in 10.0 mi North 4.6 mph - N/A   Clear
2:56 AM 35.1 °F 32.2 °F 30.0 °F 82% 30.12 in 10.0 mi North 3.5 mph - N/A   Clear
3:56 AM 36.0 °F 31.1 °F 28.9 °F 76% 30.12 in 10.0 mi NNE 5.8 mph - N/A   Clear
4:56 AM 36.0 °F 29.6 °F 28.9 °F 76% 30.13 in 10.0 mi NE 8.1 mph - N/A   Clear
5:56 AM 36.0 °F 28.5 °F 28.0 °F 73% 30.15 in 10.0 mi NE 10.4 mph - N/A   Clear
6:56 AM 36.0 °F 29.6 °F 28.0 °F 73% 30.16 in 10.0 mi NE 8.1 mph - N/A   Clear
7:56 AM 39.0 °F 34.8 °F 28.9 °F 67% 30.18 in 10.0 mi NE 5.8 mph - N/A   Clear
8:56 AM 44.1 °F 40.1 °F 28.9 °F 55% 30.19 in 10.0 mi ENE 6.9 mph - N/A   Clear
9:56 AM 48.0 °F - 32.0 °F 54% 30.21 in 10.0 mi East 6.9 mph - N/A   Clear
10:56 AM 52.0 °F - 34.0 °F 50% 30.20 in 10.0 mi NE 5.8 mph - N/A   Clear
11:56 AM 55.9 °F - 37.9 °F 51% 30.17 in 10.0 mi Calm Calm - N/A   Clear
12:56 PM 57.9 °F - 39.9 °F 51% 30.14 in 10.0 mi Calm Calm - N/A   Clear
1:56 PM 61.0 °F - 41.0 °F 48% 30.12 in 10.0 mi South 6.9 mph - N/A   Clear
2:56 PM 62.1 °F - 32.0 °F 32% 30.11 in 10.0 mi SSW 3.5 mph - N/A   Clear
3:56 PM 61.0 °F - 35.1 °F 38% 30.10 in 10.0 mi South 3.5 mph - N/A   Clear
4:56 PM 59.0 °F - 43.0 °F 55% 30.12 in 10.0 mi South 5.8 mph - N/A   Clear
5:56 PM 54.0 °F - 45.0 °F 72% 30.12 in 10.0 mi South 4.6 mph - N/A   Clear
6:56 PM 50.0 °F - 43.0 °F 77% 30.14 in 10.0 mi Calm Calm - N/A   Clear
7:56 PM 46.0 °F - 42.1 °F 86% 30.15 in 10.0 mi Calm Calm - N/A   Clear
8:56 PM 43.0 °F 40.3 °F 41.0 °F 93% 30.16 in 10.0 mi WSW 4.6 mph - N/A   Clear
9:56 PM 44.1 °F 42.5 °F 42.1 °F 93% 30.17 in 6.0 mi WSW 3.5 mph - N/A   Clear
10:21 PM 42.8 °F - 39.2 °F 87% 30.16 in 2.0 mi Calm Calm - N/A   Partly Cloudy
10:28 PM 42.8 °F 41.1 °F 39.2 °F 87% 30.16 in 1.2 mi WSW 3.5 mph - N/A   Scattered Clouds
10:31 PM 42.8 °F 41.1 °F 39.2 °F 87% 30.16 in 2.0 mi WSW 3.5 mph - N/A   Scattered Clouds
10:40 PM 42.8 °F 41.1 °F 39.2 °F 87% 30.16 in 1.5 mi WSW 3.5 mph - N/A   Scattered Clouds
10:44 PM 42.8 °F 41.1 °F 39.2 °F 87% 30.16 in 2.5 mi WSW 3.5 mph - N/A   Scattered Clouds
10:51 PM 42.8 °F - 39.2 °F 87% 30.16 in 6.0 mi Calm Calm - N/A   Partly Cloudy
10:56 PM 41.0 °F - 39.0 °F 93% 30.16 in 6.0 mi Calm Calm - N/A   Partly Cloudy
11:56 PM 39.9 °F - 37.0 °F 89% 30.16 in 8.0 mi Calm Calm - N/A   Clear